This is the latest recevied weather packets stored in our database for station/object W8AN. If no packets are shown the sender has not sent any weather packets the latest 10 day(s).
| Time | Temp. | Humidity | Pressure | Rain* | Wind** | Luminosity | Snow |
|---|---|---|---|---|---|---|---|
| 1777688041 | 6.67° C | 78% | 4270.9 hPa | 0 mm | - | 0 W/m² | - |
| 1777687738 | 6.67° C | 78% | 4271 hPa | 0 mm | - | 0 W/m² | - |
| 1777687436 | 6.11° C | 79% | 4270.9 hPa | 0 mm | - | 0 W/m² | - |
| 1777687133 | 6.67° C | 79% | 4270.8 hPa | 0 mm | - | 0 W/m² | - |
| 1777686830 | 6.67° C | 78% | 4270.7 hPa | 0 mm | - | 0 W/m² | - |
| 1777686527 | 6.67° C | 77% | 4270.8 hPa | 0 mm | - | 0 W/m² | - |
| 1777686224 | 6.67° C | 75% | 4270.6 hPa | 0 mm | - | 0 W/m² | - |
| 1777685920 | 6.67° C | 74% | 4270.4 hPa | 0 mm | - | 0 W/m² | - |
| 1777685616 | 6.67° C | 76% | 4270.7 hPa | 0 mm | - | 0 W/m² | - |
| 1777685312 | 6.67° C | 77% | 4270.3 hPa | 0 mm | - | 0 W/m² | - |
| 1777685011 | 6.67° C | 78% | 4270.2 hPa | 0 mm | - | 0 W/m² | - |
| 1777684707 | 6.67° C | 79% | 4270.3 hPa | 0 mm | - | 0 W/m² | - |
| 1777684403 | 6.67° C | 79% | 4270.3 hPa | 0 mm | - | 0 W/m² | - |
| 1777684101 | 6.67° C | 78% | 4270 hPa | 0 mm | - | 0 W/m² | - |
| 1777683797 | 6.67° C | 77% | 4270.1 hPa | 0 mm | - | 0 W/m² | - |
| 1777683494 | 6.67° C | 76% | 4270.1 hPa | 0 mm | - | 0 W/m² | - |
| 1777683192 | 7.22° C | 76% | 4270 hPa | 0 mm | - | 0 W/m² | - |
| 1777682889 | 7.22° C | 75% | 4270.3 hPa | 0 mm | - | 0 W/m² | - |
| 1777682585 | 7.22° C | 76% | 4270.2 hPa | 0 mm | - | 0 W/m² | - |
| 1777682283 | 7.22° C | 74% | 4270.3 hPa | 0 mm | - | 0 W/m² | - |
| 1777681980 | 7.22° C | 74% | 4270 hPa | 0 mm | - | 0 W/m² | - |
| 1777681675 | 7.22° C | 72% | 4269.9 hPa | 0 mm | - | 0 W/m² | - |
| 1777681373 | 7.22° C | 71% | 4269.9 hPa | 0 mm | - | 0 W/m² | - |
| 1777681070 | 7.22° C | 72% | 4270.1 hPa | 0 mm | - | 3 W/m² | - |
| 1777680768 | 7.78° C | 75% | 4269.9 hPa | 0 mm | - | 4 W/m² | - |
* Rain latest hour (hover to see other rain measurements)
** Current wind speed in m/s (hover to see current wind gust speed)